When you browse on this site, cookies collect data to enhance your experience and personalize the content and advertising you see.
Visit our Privacy Policy to learn more. By continuing to use the site, you agree to this use of cookies and data.

Stündliche Wetter Zorya

Heute, 6 August, Donnerstag

Zeit Temperatur Niederschläge Wind Luftdruck Luftfeuchtigkeit
00:00 +22°C° 0 mm 5 m/S 758 mmHg 57%
01:00 +21°C° 0 mm 5 m/S 758 mmHg 59%
02:00 +21°C° 0 mm 4 m/S 758 mmHg 61%
03:00 +21°C° 0 mm 4 m/S 758 mmHg 63%
04:00 +20°C° 0 mm 4 m/S 758 mmHg 65%
05:00 +20°C° 0 mm 4 m/S 758 mmHg 67%
06:00 +22°C° 0 mm 4 m/S 759 mmHg 63%
07:00 +25°C° 0 mm 5 m/S 759 mmHg 59%
08:00 +27°C° 0 mm 5 m/S 759 mmHg 54%
09:00 +28°C° 0 mm 5 m/S 759 mmHg 50%
10:00 +30°C° 0 mm 5 m/S 759 mmHg 45%
11:00 +33°C° 0 mm 5 m/S 759 mmHg 40%
12:00 +34°C° 0 mm 4 m/S 759 mmHg 38%
13:00 +35°C° 0 mm 4 m/S 759 mmHg 36%
14:00 +35°C° 0 mm 4 m/S 759 mmHg 34%
15:00 +35°C° 0 mm 4 m/S 759 mmHg 35%
16:00 +35°C° 0 mm 4 m/S 758 mmHg 35%
17:00 +35°C° 0 mm 4 m/S 758 mmHg 36%
18:00 +33°C° 0 mm 4 m/S 758 mmHg 41%
19:00 +30°C° 0 mm 5 m/S 759 mmHg 46%
20:00 +28°C° 0 mm 5 m/S 759 mmHg 51%
21:00 +28°C° 0 mm 5 m/S 759 mmHg 54%
22:00 +27°C° 0 mm 5 m/S 759 mmHg 57%
23:00 +26°C° 0 mm 5 m/S 759 mmHg 60%

Morgen, 7 August, Freitag

Zeit Temperatur Niederschläge Wind Luftdruck Luftfeuchtigkeit
00:00 +26°C° 0 mm 5 m/S 759 mmHg 63%
01:00 +25°C° 0 mm 5 m/S 759 mmHg 66%
02:00 +25°C° 0 mm 5 m/S 760 mmHg 68%
03:00 +23°C° 0 mm 5 m/S 760 mmHg 69%
04:00 +23°C° 0 mm 5 m/S 760 mmHg 69%
05:00 +22°C° 0 mm 5 m/S 760 mmHg 70%
06:00 +25°C° 0 mm 5 m/S 760 mmHg 65%
07:00 +26°C° 0 mm 5 m/S 760 mmHg 61%
08:00 +28°C° 0 mm 5 m/S 760 mmHg 56%
09:00 +30°C° 0 mm 5 m/S 760 mmHg 51%
10:00 +32°C° 0 mm 5 m/S 760 mmHg 46%
11:00 +34°C° 0 mm 5 m/S 760 mmHg 41%
12:00 +34°C° 0 mm 4 m/S 759 mmHg 38%
13:00 +35°C° 0 mm 4 m/S 759 mmHg 35%
14:00 +36°C° 0 mm 4 m/S 758 mmHg 32%
15:00 +35°C° 0 mm 4 m/S 758 mmHg 32%
16:00 +35°C° 0 mm 5 m/S 758 mmHg 33%
17:00 +35°C° 0 mm 5 m/S 758 mmHg 33%
18:00 +33°C° 0 mm 5 m/S 758 mmHg 37%
19:00 +30°C° 0 mm 5 m/S 758 mmHg 40%
20:00 +28°C° 0 mm 5 m/S 758 mmHg 44%
21:00 +27°C° 0 mm 5 m/S 758 mmHg 47%
22:00 +27°C° 0 mm 5 m/S 758 mmHg 49%
23:00 +26°C° 0 mm 5 m/S 758 mmHg 52%

übermorgen, 8 August, Samstag

Zeit Temperatur Niederschläge Wind Luftdruck Luftfeuchtigkeit
00:00 +25°C° 0 mm 5 m/S 758 mmHg 58%
01:00 +23°C° 0 mm 5 m/S 758 mmHg 65%
02:00 +23°C° 0 mm 5 m/S 758 mmHg 71%
03:00 +22°C° 0 mm 5 m/S 758 mmHg 75%
04:00 +22°C° 0 mm 5 m/S 758 mmHg 79%
05:00 +22°C° 0 mm 6 m/S 758 mmHg 83%
06:00 +23°C° 0 mm 6 m/S 758 mmHg 77%
07:00 +24°C° 0 mm 6 m/S 758 mmHg 71%
08:00 +26°C° 0 mm 6 m/S 758 mmHg 65%
09:00 +28°C° 0 mm 6 m/S 758 mmHg 59%
10:00 +29°C° 0 mm 6 m/S 758 mmHg 52%
11:00 +32°C° 0 mm 6 m/S 758 mmHg 45%
12:00 +32°C° 0 mm 6 m/S 757 mmHg 45%
13:00 +32°C° 0 mm 6 m/S 757 mmHg 44%
14:00 +32°C° 0 mm 6 m/S 757 mmHg 44%
15:00 +32°C° 0 mm 6 m/S 756 mmHg 44%
16:00 +32°C° 0 mm 6 m/S 756 mmHg 44%
17:00 +30°C° 0 mm 6 m/S 756 mmHg 44%
18:00 +29°C° 0 mm 6 m/S 756 mmHg 46%
19:00 +28°C° 0 mm 6 m/S 756 mmHg 48%
20:00 +26°C° 0 mm 6 m/S 756 mmHg 51%
21:00 +24°C° 0 mm 6 m/S 756 mmHg 53%
22:00 +24°C° 0 mm 6 m/S 756 mmHg 55%
23:00 +23°C° 0 mm 6 m/S 757 mmHg 57%

9 August, Sonntag

Zeit Temperatur Niederschläge Wind Luftdruck Luftfeuchtigkeit
00:00 +22°C° 0 mm 6 m/S 756 mmHg 59%
01:00 +22°C° 0 mm 6 m/S 756 mmHg 61%
02:00 +21°C° 0 mm 6 m/S 756 mmHg 63%
03:00 +20°C° 0 mm 6 m/S 756 mmHg 64%
04:00 +20°C° 0 mm 6 m/S 756 mmHg 65%
05:00 +19°C° 0 mm 5 m/S 756 mmHg 66%
06:00 +21°C° 0 mm 6 m/S 756 mmHg 59%
07:00 +23°C° 0 mm 6 m/S 756 mmHg 52%
08:00 +26°C° 0 mm 7 m/S 756 mmHg 45%
09:00 +27°C° 0 mm 7 m/S 756 mmHg 42%
10:00 +28°C° 0 mm 7 m/S 756 mmHg 38%
11:00 +29°C° 0 mm 6 m/S 756 mmHg 35%
12:00 +29°C° 0 mm 6 m/S 756 mmHg 33%
13:00 +30°C° 0 mm 6 m/S 755 mmHg 32%
14:00 +30°C° 0 mm 6 m/S 755 mmHg 30%
15:00 +30°C° 0 mm 6 m/S 755 mmHg 30%
16:00 +30°C° 0 mm 6 m/S 755 mmHg 31%
17:00 +30°C° 0 mm 6 m/S 755 mmHg 31%
18:00 +28°C° 0 mm 5 m/S 755 mmHg 35%
19:00 +26°C° 0 mm 5 m/S 755 mmHg 38%
20:00 +25°C° 0 mm 5 m/S 755 mmHg 42%
21:00 +23°C° 0 mm 5 m/S 755 mmHg 45%
22:00 +22°C° 0 mm 6 m/S 756 mmHg 49%
23:00 +22°C° 0 mm 6 m/S 756 mmHg 52%

10 August, Montag

Zeit Temperatur Niederschläge Wind Luftdruck Luftfeuchtigkeit
00:00 +21°C° 0 mm 5 m/S 756 mmHg 56%
01:00 +20°C° 0 mm 5 m/S 756 mmHg 61%
02:00 +19°C° 0 mm 4 m/S 756 mmHg 65%
03:00 +19°C° 0 mm 4 m/S 756 mmHg 66%
04:00 +19°C° 0 mm 4 m/S 756 mmHg 68%
05:00 +18°C° 0 mm 4 m/S 756 mmHg 69%
06:00 +20°C° 0 mm 4 m/S 756 mmHg 62%
07:00 +22°C° 0 mm 4 m/S 756 mmHg 56%
08:00 +26°C° 0 mm 5 m/S 756 mmHg 49%
09:00 +27°C° 0 mm 5 m/S 756 mmHg 45%
10:00 +28°C° 0 mm 5 m/S 756 mmHg 41%
11:00 +30°C° 0 mm 5 m/S 756 mmHg 37%
12:00 +30°C° 0 mm 4 m/S 756 mmHg 35%
13:00 +32°C° 0 mm 4 m/S 756 mmHg 34%
14:00 +32°C° 0 mm 4 m/S 756 mmHg 33%
15:00 +32°C° 0 mm 4 m/S 756 mmHg 34%
16:00 +30°C° 0 mm 4 m/S 756 mmHg 36%
17:00 +30°C° 0 mm 4 m/S 755 mmHg 38%
18:00 +29°C° 0 mm 4 m/S 756 mmHg 41%
19:00 +28°C° 0 mm 4 m/S 756 mmHg 45%
20:00 +26°C° 0 mm 4 m/S 756 mmHg 48%
21:00 +26°C° 0 mm 4 m/S 756 mmHg 51%
22:00 +25°C° 0 mm 4 m/S 756 mmHg 53%
23:00 +23°C° 0 mm 4 m/S 756 mmHg 55%

11 August, Dienstag

Zeit Temperatur Niederschläge Wind Luftdruck Luftfeuchtigkeit
00:00 +23°C° 0 mm 4 m/S 757 mmHg 57%
01:00 +22°C° 0 mm 4 m/S 757 mmHg 59%
02:00 +22°C° 0 mm 3 m/S 757 mmHg 61%
03:00 +21°C° 0 mm 3 m/S 757 mmHg 63%
04:00 +21°C° 0 mm 4 m/S 757 mmHg 64%
05:00 +20°C° 0 mm 4 m/S 757 mmHg 65%
06:00 +22°C° 0 mm 3 m/S 757 mmHg 59%
07:00 +25°C° 0 mm 3 m/S 757 mmHg 53%
08:00 +27°C° 0 mm 3 m/S 757 mmHg 47%
09:00 +28°C° 0 mm 3 m/S 757 mmHg 43%
10:00 +29°C° 0 mm 3 m/S 757 mmHg 39%
11:00 +30°C° 0 mm 3 m/S 757 mmHg 36%
12:00 +31°C° 0 mm 3 m/S 757 mmHg 34%
13:00 +31°C° 0 mm 3 m/S 757 mmHg 32%
14:00 +33°C° 0 mm 3 m/S 756 mmHg 30%
15:00 +31°C° 0 mm 3 m/S 756 mmHg 29%
16:00 +31°C° 0 mm 2 m/S 756 mmHg 28%
17:00 +31°C° 0 mm 2 m/S 756 mmHg 28%
18:00 +29°C° 0 mm 3 m/S 756 mmHg 31%
19:00 +27°C° 0 mm 3 m/S 756 mmHg 35%
20:00 +25°C° 0 mm 3 m/S 756 mmHg 39%
21:00 +25°C° 0 mm 4 m/S 757 mmHg 40%
22:00 +23°C° 0 mm 4 m/S 757 mmHg 42%
23:00 +22°C° 0 mm 4 m/S 757 mmHg 43%
Mehr zeigen